Cloud_Cover
4 8 100 100 98 51 65 80 100 32 98 26 79 95 90 21 5 6 97 88 100 100 100 90 98 100 100 100 100 100 100 100 100 100 60 41 49 98 100 100 100 99 19 4 5 4 5 4 2
64 67 57 60 21 12 3 54 85 88 83 41 93 99 72 68 38 25 76 100 87 83 100 75 100 72 96 100 100 100 100 100 100 96 54 58 100 100 100 100 74 5 4 5 5 5 0 0 0
10 100 100 46 38 4 42 74 99 75 100 88 100 92 10 52 100 100 100 99 98 96 90 75 94 94 100 100 100 100 76 87 99 98 85 100 100 100 96 20 5 3 4 5 4 0 0 0 0
97 100 100 100 100 41 91 99 5 10 5 96 99 99 87 7 22 74 78 100 96 100 100 100 59 100 71 59 70 100 100 100 100 100 100 100 100 5 5 0 3 0 3 5 0 0 0 4 19
10 7 100 100 100 99 20 5 4 5 5 5 50 86 89 7 5 0 3 43 86 94 100 100 100 100 100 100 100 100 100 100 100 98 54 0 5 5 2 1 5 4 4 4 2 0 5 25 49
15 5 17 74 100 67 99 37 43 0 4 4 3 5 29 1 3 1 4 3 5 44 75 91 100 100 61 42 86 84 34 14 0 0 0 0 0 6 5 6 5 5 5 5 5 0 4 5 28
7 19 3 0 5 5 4 7 7 7 14 26 4 53 75 9 5 4 5 17 92 90 50 51 41 19 2 0 0 0 0 0 0 0 1 0 1 5 5 5 5 5 10 88 8 4 0 5 4
40 29 5 5 3 5 2 3 82 86 99 93 86 56 100 84 97 100 100 100 98 100 100 73 43 0 0 0 0 0 1 0 1 0 0 4 1 5 71 5 5 88 10 96 5 0 3 0 5
100 88 12 5 5 0 4 15 3 0 56 96 100 79 63 35 80 81 81 65 30 30 27 25 10 9 11 0 3 5 4 13 3 0 0 0 0 0 2 5 18 74 71 80 24 18 9 12 0
19 5 69 6 4 3 0 2 0 0 0 0 0 0 0 0 0 2 36 62 65 52 40 19 22 16 14 3 0 2 0 0 0 0 0 0 0 0 5 10 6 8 5 99 10 52 59 9 3
5 37 90 43 0 0 0 0 0 0 0 0 0 0 0 0 0 0 0 3 3 1 3 5 16 16 13 13 26 36 31 25 18 0 1 2 0 0 5 17 6 12 24 14 30 41 94 100 22
72 12 0 3 3 0 0 0 0 0 0 4 5 4 4 10 0 0 0 0 0 0 0 0 0 10 8 19 29 26 35 33 31 20 2 14 16 1 5 91 43 92 5 6 5 71 58 73 59
2 5 0 3 2 1 1 3 0 0 0 4 5 5 6 5 5 0 0 0 0 0 0 0 0 0 0 12 16 13 21 21 17 34 21 16 49 10 19 59 92 83 29 6 38 100 76 21 66
5 10 4 0 0 0 0 0 0 0 0 2 4 4 3 3 0 0 0 0 0 0 0 0 0 0 0 1 0 3 0 6 2 8 0 2 7 18 37 79 98 96 72 38 47 9 14 99 91
49 1 0 0 1 5 0 0 0 0 0 0 0 0 0 0 0 0 0 0 0 0 0 0 0 0 0 0 0 3 1 7 0 0 0 1 5 4 0 5 64 100 27 79 34 69 100 100 67
4 4 0 5 5 21 0 0 0 0 0 0 0 0 0 0 0 0 0 0 0 0 0 0 0 0 0 0 0 0 1 0 0 0 0 15 0 0 1 26 21 0 7 9 4 0 0 28 84
1 0 0 4 56 14 4 2 0 0 0 0 0 0 0 0 0 0 0 0 0 0 0 0 0 0 0 0 0 2 0 0 0 0 0 0 0 0 0 26 11 8 18 16 1 1 10 12 2
1 4 0 0 0 5 5 4 0 0 0 0 0 0 0 0 0 0 0 0 0 0 0 0 0 0 0 0 4 1 0 0 0 6 3 0 0 0 4 4 31 7 12 11 20 33 11 16 19
0 5 2 5 3 4 4 1 0 0 0 0 0 0 0 0 0 0 0 0 0 0 0 0 0 0 4 10 14 13 10 0 0 0 0 0 0 0 0 0 0 0 0 0 0 3 4 2 1
0 5 14 96 5 76 98 11 0 4 0 2 3 0 0 0 0 0 0 0 0 0 0 0 0 0 0 0 0 0 0 0 0 0 0 0 0 0 0 0 0 0 0 0 0 0 1 5 15
4 0 9 4 32 96 98 69 1 13 3 4 5 4 0 0 0 0 0 0 0 0 0 0 0 0 0 0 0 2 2 0 0 3 2 0 0 0 0 0 0 0 0 0 0 0 0 0 2
0 0 5 96 8 1 0 4 5 89 5 1 90 5 0 0 5 2 0 0 0 0 0 0 0 0 0 0 3 0 14 4 2 0 0 0 0 0 0 0 0 0 0 0 0 0 0 0 0
0 6 61 5 0 0 0 2 0 5 0 0 63 24 4 2 4 0 0 0 0 0 0 0 0 0 0 0 1 12 0 0 0 0 0 0 0 0 0 0 0 0 0 0 0 0 0 0 0
0 94 61 5 5 0 0 0 0 0 0 0 0 0 5 5 4 0 0 0 0 0 0 0 0 0 0 0 0 0 0 0 1 0 0 0 0 0 0 0 0 1 5 0 0 0 2 0 3
0 86 10 1 0 0 0 0 0 0 0 0 0 0 0 0 0 0 0 0 0 0 0 0 0 0 0 0 0 0 0 0 0 0 0 0 0 0 3 4 2 3 3 0 0 0 5 3 3
0 26 2 0 0 0 0 0 0 0 4 0 0 0 0 0 0 0 0 0 0 0 0 0 0 0 0 0 0 0 0 0 0 0 0 0 0 3 5 5 5 3 4 0 0 4 31 6 4
0 0 0 0 0 0 0 0 0 0 54 2 0 0 0 0 0 0 0 0 15 70 4 0 0 0 0 0 0 0 0 0 0 1 5 5 5 10 5 5 5 5 5 5 3 1 5 5 7
0 0 0 0 0 0 0 0 0 0 2 3 0 0 0 0 0 0 0 0 0 0 0 0 0 11 52 0 5 29 11 3 2 7 5 3 56 98 11 5 5 5 5 10 5 5 5 10 7
0 0 0 0 0 0 0 0 0 0 0 0 5 0 0 0 0 0 0 0 0 0 0 0 0 18 72 81 0 18 0 3 5 40 6 99 59 21 17 59 80 66 19 78 6 5 5 10 5
0 0 0 0 0 0 0 0 0 0 0 3 38 6 1 0 0 0 0 0 0 0 0 0 0 0 11 31 0 0 10 5 5 91 100 100 100 100 86 100 100 100 100 100 7 18 99 19 5